Regional Weather Roundup
Issued by NWS

Home | Current Version | Previous Version | Text Only | Print | Product List | Glossary On
Versions: 1 2 3 4 5 6 7 8 9 10 11 12 13 14 15 16 17 18 19 20 21 22 23 24 25 26 27 28 29 30 31 32 33 34 35 36 37 38 39 40 41 42 43 44 45 46 47 48 49 50
000
ASUS44 KOUN 281700
RWROK

WEATHER ROUNDUP FOR OKLAHOMA
NATIONAL WEATHER SERVICE NORMAN OK
1200 PM CDT MON JUL 28 2014

NOTE: "FAIR" INDICATES FEW OR NO CLOUDS BELOW 12,000 FEET WITH NO
      SIGNIFICANT WEATHER AND/OR OBSTRUCTIONS TO VISIBILITY.

OKZ001>007-009>012-014-015-017-281800-
NORTHWEST OKLAHOMA AND THE PANHANDLE

CITY           SKY/WX    TMP DP  RH WIND       PRES   REMARKS
GAGE           CLOUDY    70  61  73 SE6       30.32F
ENID/WOODRING  PTSUNNY   82  59  44 N6        30.28R
$$

OKZ016-021>023-033>039-044-045-281800-
SOUTHWEST OKLAHOMA

CITY           SKY/WX    TMP DP  RH WIND       PRES   REMARKS
LAWTON/REGL    CLOUDY    72  69  90 N5        30.29R
LAWTON/FT SILL LGT RAIN  71  68  90 N6        30.29R
FREDERICK      LGT RAIN  70  67  90 NE12      30.26R
CLINTON        LGT RAIN  70  65  84 NW9       30.35F
HOBART         CLOUDY    71  67  87 N10       30.33R
$$

OKZ018>020-024>031-281800-
CENTRAL OKLAHOMA

CITY           SKY/WX    TMP DP  RH WIND       PRES   REMARKS
OKLAHOMA CITY  CLOUDY    82  60  47 NE7       30.28R
OKC/WILEY POST CLOUDY    81  60  48 NE5       30.28R
STILLWATER     PTSUNNY   82  61  48 N9        30.26R
GUTHRIE        CLOUDY    82  60  47 N6        30.28R
$$

OKZ008-013-054>072-281800-
NORTHEAST OKLAHOMA

CITY           SKY/WX    TMP DP  RH WIND       PRES   REMARKS
TULSA          MOSUNNY   83  59  44 NE5       30.21F
TULSA/JONES    SUNNY     82  59  45 NE6       30.23S
PONCA CITY     SUNNY     82  61  48 NE5       30.27S
BARTLESVILLE   SUNNY     81  59  47 CALM      30.25F
MUSKOGEE       SUNNY     83  60  45 N13       30.22F
$$

OKZ032-040>043-046>053-073>077-281800-
SOUTH CENTRAL/SOUTHEAST OKLAHOMA

CITY           SKY/WX    TMP DP  RH WIND       PRES   REMARKS
MCALESTER      MOSUNNY   84  61  45 NE7       30.21S
$$



USA.gov is the U.S. government's official web portal to all federal, state and local government web resources and services.